DMSP 5D-2 F13 DEB, 40402

Orbit data source: Space-Track

DMSP 5D-2 F13 DEB, 40402 is space debris in SSO originally from a launch on Fri, 24 Mar 1995 UTC launched from the Air Force Western Test Range (AFWTR). Debris objects in space refer to the collection of defunct objects orbiting the Earth. Examples of debris include non-operational satellites, rocket bodies, and fragments generated from explosions, collisions, or faulty payload assembly.

Loading next visibility...
Identifier
40402, 1995-015P
Orbit
SSO
Country
Flag of USUS
Related business
Manufacturer
Unknown
Mission
Spacecraft
Bus & Motor
Unknown
Mass
Unknown
Launch date (UTC)
1995-03-24 (31 years ago)
Launch vehicle
Unknown
Launch site
Air Force Western Test Range (AFWTR)
Object type
Payload
Rocket body
Debris
Shape & HBR
Unknown shape, 0.1 m
Radar Cross Section
Small (<0.1 m²)

Expand to show TLE details & history
Last TLE update: 16 hours ago

TLE from 16 hours ago
0 DMSP 5D-2 F13 DEB
1 40402U 95015P   25286.78572604  .00002599  00000-0  94004-3 0  9997
2 40402  98.6764 307.2279 0145629  42.6577 318.5805 14.28590098551805
Epoch: 2025-10-13T18:51Z
TLE epoch observation values (Epoch: 2025-10-13T18:51:26.729Z)
Latitude
0.00002°
Longitude
1.78301°
Altitude
721.686 km
Speed
7.535 km/s
True Right ascension
20h 28m 54s
True Declination
0° 00' 00"
Sunlit
Object was in daylight at epoch
Visualization orbit readout
Latitude
Unknown
Longitude
Unknown
Altitude
Unknown
Speed
Unknown
Apparent Right ascension
Unknown
Apparent Declination
Unknown
Sunlit
N/A
Visualization observer readout
Local Sidereal Time
05:42:59
Azimuth
Unknown
Elevation
Unknown
Doppler factor
Unknown
Orbital elements
Apogee altitude
898.033 km
Perigee altitude
689.151 km
Semi-major axis
7,171.729 km
Eccentricity
0.01456
Inclination
98.6764°
RAAN
307.2279°
Arg. of periapsis
42.6577°
True anomaly
317.46129°
Mean anomaly
318.5805°
Eccentric anomaly
318.02243°
Mean motion
3.57361 °/min
Orbital period
100.74 mins
BSTAR
0.00094004

Documentation

Showing up to 5 results
|